Погода в Пудоже

Погода в Пудоже : погода сейчас, прогноз погоды и архив. Всё, что Вы хотите узнать о погоде в Пудоже!

Хотите узнать прогноз погоды в Пудоже? Тогда Вам сюда: Погода в Пудоже

Поиск расширенной информации на нашем сайте:

Другие новости

Новости СМИ2

Главная страница сайта

Новости сайта

03.07.2017

Напоминаем, что на нашем специализированном сайте Метеоцентр.Азия вы можете получить высокодетализированные автоматические прогнозы погоды по пунктам России, СНГ и мира в авиационном формате (включающие направление и скорость ветра, видимость, явления погоды, количество и форму облачности, нижнюю и верхнюю границу облачности).

Рекомендуем: выгодно снять: продажа офиса БЦ Новоспасский Двор у метро Пролетарская на сайте бизнес центра

Погода в Пудоже - сегодня

Время (UTC), дата Ветер
(°,м/с) 
Видим.   Явления Облачность Т
(°С)
Тd
(°С)
f(%) Тe
(°С)
Pmin
(гПа)
dP
(гПа)
Po
(мм)
O2
(г/м3)
Тmin Tmax R s Состояние
почвы
12 14.06.18 280 (З) 20000 м    8/3 600 м кучево-дожд., средняя 
[Cb cap|Ac trans]
+14.2 +1.6 42 +15  1016.6  0.1  758  290           
15 14.06.18 230 (ЮЗ) 20000 м    8/1 600 м кучево-дожд., средняя 
[Cb cap|Ac trans]
+14.9 +1.3 40 +16  1016.4  -0.2  758  290           
21 14.06.18 тихо ()   20000 м    4/0 средняя 
[Ac trans]
+3.7 +2.5 92 +4  1017.9  759  301           
00 15.06.18 тихо ()   20000 м    8/0 средняя, верхняя 
[Ac trans|Ci fib]
+3.6 +2.7 94 +4  1017.9  0.1  759  302           
03 15.06.18 тихо ()   20000 м    9/0 средняя, верхняя 
[Ac trans|Ci fib]
+7.9 +5.5 85 +8  1018  0.2  759  297  +2.2         
09 15.06.18 200 (Ю) 20000 м    9/0 средняя 
[Ac trans]
+19.6 +4.7 37 +21  1017.8  0.1  759  285           
12 15.06.18 270 (З) 20000 м    8/3 1000 м средняя 
[Cu hum|Ac trans]
+22.2 +4.5 31 +22  1017.4  -0.3  759  282           
15 15.06.18 210 (ЮЗ) 20000 м    8/0 средняя 
[Ac trans]
+21.2 +3.5 31 +21  1016.8  -0.7  759  283           
21 15.06.18 тихо ()   20000 м    6/3 1000 м средняя 
[Sc|Ac trans]
+11.4 +8.9 85 +11  1017.1  0.6  759  292           
00 16.06.18 тихо ()   20000 м    8/0 средняя 
[Ac trans]
+8.6 +7.4 92 +9  1017.7  0.6  759  295           
03 16.06.18 тихо ()   20000 м    8/3 1000 м средняя, верхняя 
[Sc|Ac trans|Ci fib]
+15.5 +10.4 72 +17  1018.1  0.5  760  288  +8.6         
09 16.06.18 240 (ЮЗ) 20000 м    8/1 1000 м средняя, верхняя 
[Cu hum|Ac trans|Ci fib]
+24.4 +13.2 50 +30  1018.4  0.3  760  279           
12 16.06.18 260 (З) 20000 м    8/3 1000 м средняя, верхняя 
[Cu med, cong|Ac trans|Ci fib]
+25 +11.9 44 +28  1018.4  760  278           
15 16.06.18 250 (З) 20000 м    8/0 средняя, верхняя 
[Ac trans|Ci fib]
+23.4 +12 49 +27  1018.1  -0.3  760  280           
21 16.06.18 тихо ()   20000 м    6/0 средняя, верхняя 
[Ac trans|Ci fib]
+13 +11.8 92 +16  1018.9  0.6  760  290           
00 17.06.18 тихо ()   20000 м    8/0 средняя, верхняя 
[Ac trans|Ci fib]
+11.1 +10.5 96 +13  1019.5  0.6  761  293           
03 17.06.18 тихо ()   20000 м    4/0 средняя, верхняя 
[Ac trans|Ci fib]
+13.6 +12.1 91 +17  1019.6  0.2  761  290  +10.4         
09 17.06.18 тихо ()   20000 м    8/4 600 м кучево-дожд., средняя 
[Cb cap|Ac trans]
+23.3 +12.5 51 +28  1019  -0.2  760  280           
12 17.06.18 270 (З) 20000 м    5/3 1000 м верхняя 
[Cu med, cong|Ci fib]
+26.9 +7.3 29 +27  1018.3  -0.7  760  278           
15 17.06.18 250 (З) 20000 м    6/1 600 м кучево-дожд., средняя, верхняя 
[Cb cap|Ac trans|Ci fib]
+27.1 +7.6 29 +27  1017.4  -0.7  759  277           
21 17.06.18 тихо ()   20000 м    6/0 средняя 
[Ac trans]
+12.7 +11.2 91 +15  1017.7  0.3  759  290           
00 18.06.18 тихо ()   20000 м    8/0 средняя 
[Ac trans]
+12.5 +10.7 89 +14  1017.4  -0.3  759  290           
03 18.06.18 тихо ()   20000 м    9/0 средняя 
[Ac trans]
+14.3 +12.4 88 +19  1016.8  -0.6  759  288  +11.4         
09 18.06.18 200 (Ю) 20000 м    6/1 1000 м средняя 
[Cu med, cong|Ac trans]
+26.2 +11.9 41 +30  1014.6  -1.3  757  276           
12 18.06.18 260 (З) 20000 м    8/3 1000 м средняя 
[Cu med, cong|Ac trans]
+25.8 +10.1 37 +27  1013.5  -1.1  756  277           
Время (UTC), дата Ветер
(°,м/с) 
Видим.   Явления Облачность Т
(°С)
Тd
(°С)
f(%) Тe
(°С)
Pmin
(гПа)
dP
(гПа)
Po
(мм)
O2
(г/м3)
Тmin Tmax R s Состояние
почвы

Для получения пояснительной информации подведите курсор к названию столбца.

ПОГОДА в Пудоже - архив

Всё, что Вы хотите узнать о погоде в Пудоже - удобно и подробно!

Выберите нужную дату (начиная с 1 января 2015* года) и нажмите кнопку "Найти".
Будут отображены архивные сводки погоды по пункту Пудож, начиная с указанной даты.


Отображать данные в формате CSV (для использования в таблицах Excel)


Внимание! Наш архив погоды предназначен исключительно для личного некоммерческого использования в познавательных целях. Если Вам необходимы официальные справки о состоянии погоды (для производственных, юридических, коммерческих и т.п. целей), обращайтесь в органы Росгидромета.

*Примечание: данная дата относится к архиву по метеостанциям СССР (Россия, СНГ, Балтия).
Архив по метеостанциям Зарубежной Европы и Азии (кроме Китая) хранится 10 дней, по другим регионам земного шара (Китай, Африка, Америка, Австралия, Океания) - 1 день.

Пудож - район местоположения метеостанции


Название, широта, долгота, высота метеостанции:
Пудож 61.8°ш. 36.5°д. 44 м над ур. моря [Российская Федерация]

Дополнительная информация

В oтличие oт бoльшинства пoгoдных сайтoв мы публикуем пoдрoбную метеoинфoрмацию в детальнoм прoфессиoнальнoм фoрмате.

Характеристики температуры и влажнoсти вoздуха измеряются на высoте 2 м в тени вдали oт зданий и деревьев.
Скoрoсть ветра измеряется на высoте 10 м (на урoвне рoста челoвека скoрoсть ветра ниже в 1.5-2 раза). Если метеoстанция нахoдится в гoрoде или в лесу, тo скoрoсть ветра занижена на 2-4 м/с пo сравнению с oткрытым местoм. Скoрoсть ветра над акватoриями крупных рек и oзёр, а также на вершинах хoлмoв на 2-5 м/с выше, чем в oбычных услoвиях.
Атмoсфернoе давление в разных тoчках местнoсти мoжет значительнo oтличаться oт давления на метеoстанции, в зависимoсти oт услoвий рельефа (при пoдъёме на 10 м давление пoнижается примернo на 1 мм рт.ст.).